GW1739 Weather Reports


time (UTC)temp
C
wind
direction
speed
KPH
gust
KPH
rain 1hr
cm
rain 24hr
cm
rain mn
cm
humidity
%
barometer
mb
20260503072009 12 239 0.0 8.0 0.00 0.00 0.00 47 1017.2
20260503071527 12 124 0.0 4.8 0.00 0.00 0.00 48 1017.2
20260503071007 12 173 0.0 4.8 0.00 0.00 0.00 48 1017.2
20260503070508 12 115 0.0 4.8 0.00 0.00 0.00 48 1017.2
20260503055011 12 64 0.0 1.6 0.00 0.00 0.00 49 1017.1
20260503054519 12 64 0.0 1.6 0.00 0.00 0.00 51 1017.0
20260503054003 12 61 0.0 1.6 0.00 0.00 0.00 48 1017.0
20260503053506 12 53 0.0 1.6 0.00 0.00 0.00 50 1017.1
20260503053027 12 47 0.0 1.6 0.00 0.00 0.00 49 1017.0
20260503052507 12 46 0.0 1.6 0.00 0.00 0.00 51 1017.0
20260503052010 12 96 0.0 1.6 0.00 0.00 0.00 50 1017.0
20260503051518 12 90 0.0 1.6 0.00 0.00 0.00 52 1017.0
20260503051005 12 101 0.0 1.6 0.00 0.00 0.00 52 1017.0
20260503050511 12 101 0.0 1.6 0.00 0.00 0.00 52 1017.1
20260503050024 12 101 0.0 1.6 0.00 0.00 0.00 51 1017.1
20260503045511 12 101 0.0 1.6 0.00 0.00 0.00 53 1017.1
20260503045010 12 101 0.0 1.6 0.00 0.00 0.00 52 1017.1
20260503044528 12 101 0.0 3.2 0.00 0.00 0.00 51 1017.1
20260503044010 12 56 0.0 3.2 0.00 0.00 0.00 52 1017.1
20260503043506 13 134 0.0 3.2 0.00 0.00 0.00 50 1017.1
20260503043019 13 134 0.0 11.3 0.00 0.00 0.00 49 1017.1
20260503042503 13 97 0.0 12.9 0.00 0.00 0.00 49 1017.1
20260503042010 13 171 1.6 19.3 0.00 0.00 0.00 49 1017.0
20260503041517 13 139 4.8 24.1 0.00 0.00 0.00 50 1017.0
20260503041008 13 160 12.9 24.1 0.00 0.00 0.00 46 1017.2
20260503040506 13 153 3.2 17.7 0.00 0.00 0.00 44 1016.6
20260503040031 13 192 3.2 11.3 0.00 0.00 0.00 43 1016.5
20260503035506 13 71 0.0 1.6 0.00 0.00 0.00 42 1016.2
20260503035010 13 65 0.0 1.6 0.00 0.00 0.00 44 1016.2
20260503034524 13 28 0.0 6.4 0.00 0.00 0.00 43 1016.0
20260503034008 13 30 0.0 6.4 0.00 0.00 0.00 43 1016.0
20260503033512 13 55 0.0 4.8 0.00 0.00 0.00 43 1016.0
20260503033030 13 81 0.0 4.8 0.00 0.00 0.00 42 1015.8
20260503032510 13 32 0.0 3.2 0.00 0.00 0.00 42 1015.8
20260503032012 13 59 0.0 6.4 0.00 0.00 0.00 42 1015.8
20260503031516 13 72 0.0 6.4 0.00 0.00 0.00 42 1015.7
20260503031005 13 136 0.0 4.8 0.00 0.00 0.00 42 1015.7
20260503030507 14 360 1.6 9.7 0.00 0.00 0.00 42 1015.6
20260503030024 14 360 1.6 9.7 0.00 0.00 0.00 41 1015.6
20260503025508 15 5 0.0 8.0 0.00 0.00 0.00 40 1015.6
20260503025008 15 136 0.0 12.9 0.00 0.00 0.00 40 1015.6
20260503024525 15 134 1.6 12.9 0.00 0.00 0.00 40 1015.5
20260503024007 15 201 0.0 11.3 0.00 0.00 0.00 38 1015.6
20260503023508 15 130 0.0 11.3 0.00 0.00 0.00 38 1015.8
20260503023028 15 171 1.6 11.3 0.00 0.00 0.00 37 1015.8
20260503022507 16 351 0.0 6.4 0.00 0.00 0.00 36 1015.9
20260503022013 16 217 1.6 6.4 0.00 0.00 0.00 35 1015.8
20260503021526 16 116 0.0 16.1 0.00 0.00 0.00 37 1015.7
20260503021004 16 105 1.6 16.1 0.00 0.00 0.00 35 1015.6
20260503020504 16 116 4.8 33.8 0.00 0.00 0.00 36 1015.5
20260503020002 16 324 8.0 33.8 0.00 0.00 0.00 33 1015.4
20260503015504 16 5 6.4 16.1 0.00 0.00 0.00 33 1015.2
20260503015004 16 15 3.2 16.1 0.00 0.00 0.00 34 1015.1
20260503014506 16 117 4.8 16.1 0.00 0.00 0.00 35 1015.4
20260503014003 16 238 4.8 12.9 0.00 0.00 0.00 35 1015.4
20260503013506 16 119 4.8 14.5 0.00 0.00 0.00 35 1015.2
20260503013006 16 98 3.2 16.1 0.00 0.00 0.00 35 1015.1
20260503012503 16 173 3.2 17.7 0.00 0.00 0.00 35 1015.2
20260503012005 16 68 4.8 17.7 0.00 0.00 0.00 35 1015.2
20260503011503 16 159 4.8 25.7 0.00 0.00 0.00 34 1015.1
20260503011004 17 5 4.8 25.7 0.00 0.00 0.00 34 1015.1
20260503010504 17 188 8.0 20.9 0.00 0.00 0.00 32 1015.2
20260503010004 18 190 3.2 11.3 0.00 0.00 0.00 31 1015.1
20260503005504 18 61 3.2 12.9 0.00 0.00 0.00 31 1014.9
20260503005005 18 132 1.6 17.7 0.00 0.00 0.00 31 1015.0
20260503004506 19 204 4.8 17.7 0.00 0.00 0.00 33 1014.9
20260503004002 19 145 3.2 27.4 0.00 0.00 0.00 32 1014.7
20260503003502 18 331 3.2 27.4 0.00 0.00 0.00 32 1014.8
20260503003003 18 203 8.0 14.5 0.00 0.00 0.00 31 1014.9
20260503002503 18 355 1.6 11.3 0.00 0.00 0.00 32 1014.9
20260503002008 18 67 3.2 17.7 0.00 0.00 0.00 33 1014.9
20260503001503 18 309 1.6 25.7 0.00 0.00 0.00 32 1014.9
20260503001005 18 174 14.5 25.7 0.00 0.00 0.00 32 1014.9
20260503000505 18 159 6.4 12.9 0.00 0.00 0.00 30 1014.9
20260503000007 18 115 4.8 33.8 0.00 0.00 0.00 31 1015.0
20260502235504 18 171 16.1 33.8 0.00 0.00 0.00 31 1015.0
20260502235004 18 202 11.3 25.7 0.00 0.00 0.00 31 1015.1
20260502234512 18 305 9.7 29.0 0.00 0.00 0.00 30 1015.0
20260502234004 18 160 14.5 29.0 0.00 0.00 0.00 30 1015.1
20260502233504 18 207 6.4 29.0 0.00 0.00 0.00 30 1015.1
20260502233006 18 207 3.2 29.0 0.00 0.00 0.00 31 1015.0
20260502232503 19 195 9.7 24.1 0.00 0.00 0.00 28 1015.2
20260502232005 19 223 9.7 22.5 0.00 0.00 0.00 31 1015.3
20260502231504 19 198 9.7 22.5 0.00 0.00 0.00 29 1015.3
20260502231004 20 57 4.8 12.9 0.00 0.00 0.00 30 1015.4
20260502230504 19 145 3.2 19.3 0.00 0.00 0.00 30 1015.4
20260502230007 19 189 6.4 19.3 0.00 0.00 0.00 34 1015.6
20260502225504 18 123 4.8 24.1 0.00 0.00 0.00 33 1015.6
20260502225004 19 21 3.2 25.7 0.00 0.00 0.00 30 1015.7
20260502224507 19 169 14.5 25.7 0.00 0.00 0.00 33 1015.9
20260502224004 19 111 4.8 24.1 0.00 0.00 0.00 34 1015.9
20260502223504 18 230 6.4 25.7 0.00 0.00 0.00 32 1016.0
20260502223007 18 140 6.4 27.4 0.00 0.00 0.00 35 1016.1
20260502222504 18 222 14.5 27.4 0.00 0.00 0.00 35 1016.2
20260502222005 18 122 3.2 20.9 0.00 0.00 0.00 32 1016.3
20260502221508 18 201 11.3 24.1 0.00 0.00 0.00 32 1016.4
20260502221003 19 196 9.7 29.0 0.00 0.00 0.00 34 1016.3
20260502220503 19 186 14.5 29.0 0.00 0.00 0.00 33 1016.5
20260502220003 18 215 11.3 25.7 0.00 0.00 0.00 34 1016.5
20260502215505 18 213 12.9 27.4 0.00 0.00 0.00 33 1016.5
20260502215004 18 234 4.8 27.4 0.00 0.00 0.00 33 1016.5
20260502214521 18 181 16.1 27.4 0.00 0.00 0.00 32 1016.7
20260502214004 18 190 12.9 30.6 0.00 0.00 0.00 33 1016.6
20260502213504 18 211 12.9 30.6 0.00 0.00 0.00 35 1016.7
20260502213008 18 171 14.5 30.6 0.00 0.00 0.00 36 1016.6
20260502212505 18 208 11.3 20.9 0.00 0.00 0.00 36 1016.5
20260502212005 18 130 12.9 24.1 0.00 0.00 0.00 35 1016.5
20260502211516 18 175 12.9 24.1 0.00 0.00 0.00 36 1016.6
20260502211003 18 213 8.0 16.1 0.00 0.00 0.00 35 1016.5
20260502210504 18 181 6.4 12.9 0.00 0.00 0.00 36 1016.6
20260502210021 17 217 1.6 14.5 0.00 0.00 0.00 35 1016.7
20260502205503 17 98 3.2 14.5 0.00 0.00 0.00 36 1016.7
20260502205007 17 185 4.8 22.5 0.00 0.00 0.00 35 1016.7
20260502204512 17 155 12.9 22.5 0.00 0.00 0.00 35 1017.0
20260502204003 17 168 9.7 24.1 0.00 0.00 0.00 36 1016.9
20260502203506 17 171 12.9 24.1 0.00 0.00 0.00 34 1017.0
20260502203014 17 212 4.8 24.1 0.00 0.00 0.00 35 1017.0
20260502202503 17 156 4.8 27.4 0.00 0.00 0.00 35 1017.0
20260502202003 17 180 12.9 27.4 0.00 0.00 0.00 35 1017.0
20260502201511 17 121 9.7 25.7 0.00 0.00 0.00 34 1017.0
20260502201006 17 192 9.7 16.1 0.00 0.00 0.00 34 1016.9
20260502200506 17 219 4.8 14.5 0.00 0.00 0.00 36 1017.0
20260502200012 17 169 9.7 20.9 0.00 0.00 0.00 34 1016.9
20260502195505 17 288 4.8 22.5 0.00 0.00 0.00 33 1017.0
20260502195007 17 148 14.5 22.5 0.00 0.00 0.00 33 1017.0
20260502194510 17 213 12.9 25.7 0.00 0.00 0.00 34 1017.0
20260502194006 17 192 9.7 25.7 0.00 0.00 0.00 33 1017.0
20260502193507 17 162 14.5 24.1 0.00 0.00 0.00 33 1017.0
20260502193011 17 167 4.8 19.3 0.00 0.00 0.00 36 1017.0
20260502192506 17 219 9.7 19.3 0.00 0.00 0.00 34 1017.0
20260502192006 17 147 8.0 20.9 0.00 0.00 0.00 36 1016.9
20260502191519 17 150 8.0 22.5 0.00 0.00 0.00 34 1016.9
20260502191003 17 192 12.9 22.5 0.00 0.00 0.00 36 1017.0
20260502190507 17 168 9.7 20.9 0.00 0.00 0.00 35 1017.0
20260502190013 16 175 12.9 20.9 0.00 0.00 0.00 35 1016.9
20260502185507 16 163 8.0 20.9 0.00 0.00 0.00 35 1016.8
20260502185007 16 178 12.9 20.9 0.00 0.00 0.00 36 1016.9
20260502184515 17 143 9.7 16.1 0.00 0.00 0.00 36 1017.0
20260502184009 17 214 4.8 20.9 0.00 0.00 0.00 36 1017.0
20260502183507 17 186 11.3 20.9 0.00 0.00 0.00 33 1016.9
20260502183017 17 202 4.8 16.1 0.00 0.00 0.00 32 1016.7
20260502182508 17 207 6.4 14.5 0.00 0.00 0.00 37 1016.8
20260502182006 17 198 4.8 16.1 0.00 0.00 0.00 36 1016.8
20260502181511 17 162 8.0 30.6 0.00 0.00 0.00 37 1016.8
20260502181006 17 190 9.7 30.6 0.00 0.00 0.00 37 1016.8
20260502180507 17 209 6.4 30.6 0.00 0.00 0.00 32 1016.7
20260502170506 16 131 4.8 14.5 0.00 0.00 0.00 32 1016.4
20260502164008 16 261 4.8 9.7 0.00 0.00 0.00 33 1016.4
20260502163507 15 201 3.2 8.0 0.00 0.00 0.00 33 1016.4
20260502163018 15 262 1.6 6.4 0.00 0.00 0.00 42 1016.4
20260502162509 15 194 1.6 6.4 0.00 0.00 0.00 37 1016.5
20260502162003 14 207 3.2 6.4 0.00 0.00 0.00 36 1016.4
20260502161503 14 228 0.0 4.8 0.00 0.00 0.00 36 1016.3
20260502161004 13 206 0.0 4.8 0.00 0.00 0.00 40 1016.3
20260502160506 13 263 0.0 3.2 0.00 0.00 0.00 38 1016.3
20260502152011 13 207 1.6 3.2 0.00 0.00 0.00 46 1016.2
20260502151521 13 207 0.0 3.2 0.00 0.00 0.00 43 1016.1
20260502151007 13 219 0.0 1.6 0.00 0.00 0.00 44 1016.0
20260502150508 13 137 0.0 1.6 0.00 0.00 0.00 36 1016.0
20260502130508 10 115 1.6 4.8 0.00 0.00 0.00 30 1015.3
20260502123508 10 66 0.0 3.2 0.00 0.00 0.00 33 1015.6
20260502123012 10 66 0.0 3.2 0.00 0.00 0.00 32 1015.6
20260502122503 11 102 0.0 3.2 0.00 0.00 0.00 32 1015.6
20260502122010 11 123 0.0 4.8 0.00 0.00 0.00 30 1015.5
20260502121535 11 123 0.0 4.8 0.00 0.00 0.00 29 1015.6
20260502121008 11 140 3.2 4.8 0.00 0.00 0.00 33 1015.6
20260502120508 11 120 1.6 3.2 0.00 0.00 0.00 30 1015.5
20260502115514 10 105 0.0 4.8 0.00 0.00 0.00 30 1015.4
20260502115009 10 105 1.6 4.8 0.00 0.00 0.00 31 1015.4
20260502114522 11 105 0.0 6.4 0.00 0.00 0.00 30 1015.5
20260502114011 11 105 0.0 6.4 0.00 0.00 0.00 30 1015.6
20260502113508 11 123 0.0 3.2 0.00 0.00 0.00 28 1015.6
20260502113024 12 115 0.0 3.2 0.00 0.00 0.00 27 1015.6
20260502112508 12 115 0.0 3.2 0.00 0.00 0.00 26 1015.6
20260502112008 11 109 0.0 3.2 0.00 0.00 0.00 26 1015.7
20260502111511 11 100 0.0 3.2 0.00 0.00 0.00 26 1015.6
20260502110508 11 104 0.0 4.8 0.00 0.00 0.00 29 1015.7
20260502110023 11 113 1.6 4.8 0.00 0.00 0.00 30 1015.8
20260502105510 11 116 1.6 4.8 0.00 0.00 0.00 31 1015.7
20260502105015 10 108 3.2 4.8 0.00 0.00 0.00 31 1015.8
20260502104523 10 111 3.2 4.8 0.00 0.00 0.00 32 1015.8
20260502104006 10 111 1.6 4.8 0.00 0.00 0.00 32 1015.8
20260502103511 10 111 3.2 4.8 0.00 0.00 0.00 31 1015.9
20260502103024 10 110 3.2 4.8 0.00 0.00 0.00 31 1015.9
20260502102511 10 109 1.6 4.8 0.00 0.00 0.00 31 1015.9
20260502102014 10 110 3.2 4.8 0.00 0.00 0.00 31 1015.8
20260502101526 10 109 1.6 4.8 0.00 0.00 0.00 32 1015.9
20260502101008 10 107 1.6 4.8 0.00 0.00 0.00 31 1015.9
20260502100510 10 109 1.6 4.8 0.00 0.00 0.00 32 1015.9
20260502091526 10 94 1.6 4.8 0.00 0.00 0.00 43 1016.3
20260502091008 11 106 0.0 3.2 0.00 0.00 0.00 43 1016.3
20260502090510 10 106 0.0 3.2 0.00 0.00 0.00 45 1016.4